Temperature
18 17 17 16 16 15 14 14 14 13 13 13 13 12 12 12 13 13 13 12 12 13 13 13 13 13 13 13 13 13 14 14 14 13 13 13 13 13 13 13 14 14 15
17 16 16 16 16 15 15 14 14 14 13 13 12 12 11 11 12 12 12 12 12 12 13 13 12 13 13 13 13 13 14 14 14 13 13 13 13 12 12 13 14 14 14
16 16 16 16 16 16 15 14 14 13 13 13 12 12 11 11 11 11 11 12 12 12 12 12 12 13 12 13 13 13 13 13 13 14 13 13 13 12 12 13 13 13 13
16 15 15 16 16 15 15 14 13 13 13 13 12 12 11 11 11 11 11 12 12 12 12 12 12 13 13 13 13 13 13 13 13 13 13 12 12 12 12 12 12 12 12
14 14 14 15 15 15 15 14 13 13 13 12 12 11 11 11 11 11 11 12 12 12 12 12 12 12 12 12 13 13 13 13 13 13 12 12 12 12 12 12 12 12 12
12 12 13 14 14 15 15 14 13 13 12 12 12 11 11 11 11 11 11 11 11 11 11 12 12 12 12 13 13 13 13 13 13 13 12 12 12 12 12 11 11 11 11
11 12 12 13 14 15 15 14 13 13 12 12 12 11 11 11 11 11 11 11 11 11 11 12 12 12 12 12 12 12 12 12 12 12 12 12 11 11 11 11 11 11 10
10 11 12 12 12 12 13 14 13 13 13 12 12 11 11 11 11 11 11 11 11 12 12 12 12 11 11 12 12 12 12 11 11 11 11 11 11 11 11 11 11 10 10
10 10 11 11 11 11 11 12 12 13 12 12 12 12 11 11 11 11 11 11 11 11 11 11 11 11 11 11 12 12 11 11 11 11 11 10 10 10 10 10 10 10 9
9 9 9 10 10 10 10 10 11 12 12 12 12 12 12 12 12 12 11 11 11 11 11 11 11 11 11 11 11 11 11 11 10 10 10 10 10 10 10 9 9 9 9
9 9 9 9 9 9 9 9 10 10 10 11 12 12 12 12 12 12 11 12 12 12 11 11 10 10 10 10 10 10 10 10 10 10 9 9 9 8 8 8 9 9 9
9 9 9 9 9 8 8 9 9 9 9 10 11 11 11 11 12 11 12 12 12 12 11 11 10 10 10 10 9 9 9 9 9 9 8 8 8 8 8 8 8 8 8
8 8 9 9 9 8 8 8 9 9 9 10 10 11 11 11 11 11 11 11 11 11 11 11 10 10 10 9 9 8 8 8 8 8 7 7 7 7 7 7 7 7 7
8 8 8 9 9 8 7 8 8 8 8 9 10 11 11 11 11 11 11 11 11 11 11 10 10 9 9 8 8 8 8 8 7 7 7 7 7 7 7 7 7 7 7
8 8 8 8 8 8 7 7 7 8 8 9 9 10 11 11 11 11 11 11 11 10 10 10 9 9 9 8 8 8 8 8 7 7 7 7 7 7 6 6 6 6 6
6 6 7 8 8 7 7 7 7 7 7 8 8 8 11 12 12 11 11 11 11 11 10 10 10 9 9 9 8 8 8 8 7 7 7 7 7 6 6 6 6 6 6
4 6 7 7 7 7 7 7 6 6 7 7 7 8 10 12 12 12 12 11 11 11 10 10 10 9 9 9 9 9 8 8 8 7 7 7 7 7 7 6 6 6 6
4 5 6 7 7 7 6 6 6 6 6 7 8 9 10 11 12 12 11 11 10 10 10 10 10 9 9 9 9 9 8 8 8 8 8 7 7 7 7 6 6 6 6
3 5 6 6 6 6 6 6 6 6 6 8 9 9 9 10 11 11 11 11 11 10 10 10 10 9 9 9 9 9 9 9 8 8 8 8 7 7 7 6 6 6 5
3 5 5 5 6 6 6 6 6 6 7 7 9 9 10 9 10 10 10 11 11 11 10 10 10 9 9 9 9 9 9 9 8 8 8 8 8 7 7 6 6 6 5
3 4 4 4 5 5 6 5 6 6 6 8 9 10 10 10 11 11 11 11 11 11 11 10 10 10 9 9 10 9 9 9 9 9 8 8 8 8 7 7 6 6 5
3 3 3 4 4 5 5 6 6 6 7 8 9 10 10 11 11 11 11 11 11 11 11 10 10 10 9 10 10 10 9 9 9 9 9 8 8 8 8 7 7 6 6
2 3 3 3 4 5 6 6 6 7 7 8 9 9 10 10 10 11 11 12 12 11 11 10 10 10 10 10 10 10 10 9 9 9 9 9 9 8 8 8 7 7 7
3 3 3 4 5 6 6 6 6 7 8 8 9 9 10 10 10 11 11 12 12 12 11 11 10 10 10 10 10 10 10 10 9 9 9 9 9 9 9 8 8 8 7
3 4 4 5 6 6 6 6 6 7 8 9 10 10 10 10 10 11 11 11 11 12 11 11 10 10 10 10 10 10 10 10 9 9 9 9 9 9 9 9 9 8 8
5 5 6 6 6 6 6 6 7 8 9 10 11 12 12 11 11 11 11 11 11 11 11 11 10 10 10 10 10 10 10 10 10 9 9 9 9 10 10 10 9 9 8
Wind_Speed
5 7 7 7 6 6 6 7 5 4 5 7 9 10 11 12 10 8 5 4 3 3 4 2 2 2 2 4 6 6 4 4 6 3 3 2 4 7 8 9 10 9 11
6 6 8 7 7 7 7 8 6 5 5 7 8 8 10 10 9 8 8 7 6 6 8 7 6 7 6 6 5 5 4 6 7 6 2 3 6 5 7 7 7 8 9
9 7 8 8 9 9 8 8 6 5 5 6 6 5 7 7 8 9 9 10 9 8 7 6 4 5 4 5 3 6 7 7 6 9 5 4 5 4 5 6 6 5 6
10 9 10 11 11 11 8 7 7 5 5 4 4 3 4 5 6 7 8 8 7 8 5 3 2 4 3 3 5 9 10 10 9 10 8 5 5 5 4 3 4 4 5
10 10 11 11 10 10 10 8 7 6 5 3 1 1 2 3 4 5 5 4 4 8 4 4 4 6 5 5 7 10 11 10 8 9 8 5 4 4 3 2 2 2 3
9 10 10 9 9 10 11 10 8 7 6 5 3 2 1 1 3 4 1 2 3 6 2 6 8 10 13 15 17 15 10 10 8 6 5 6 3 3 3 2 2 2 1
11 10 9 8 8 7 9 9 10 9 8 7 6 5 4 4 5 5 2 3 3 2 6 6 6 5 9 11 13 15 14 11 8 7 7 5 3 2 3 2 2 2 2
12 9 7 7 8 6 5 8 10 8 9 9 9 9 7 7 8 6 6 4 5 6 6 5 6 5 5 9 10 10 10 9 7 6 7 5 3 3 2 3 2 2 2
12 10 7 7 7 7 6 7 9 8 9 9 9 10 9 9 12 12 11 6 5 7 5 4 5 5 5 9 12 11 10 10 11 13 13 11 11 8 3 2 2 2 2
12 11 9 7 7 6 6 6 8 8 9 10 10 10 11 10 13 17 14 8 7 5 4 4 5 7 8 8 12 12 11 6 7 8 9 10 11 11 11 6 3 3 2
11 10 11 9 8 7 6 5 6 8 9 9 9 9 10 11 13 18 18 10 10 8 6 5 4 9 11 12 11 9 9 7 8 10 9 8 8 9 9 8 7 5 4
11 10 12 10 8 7 7 5 7 9 11 11 9 8 8 9 12 16 17 15 13 10 8 6 5 10 13 13 11 12 12 9 7 8 7 6 7 7 6 7 8 9 8
12 12 13 12 8 7 7 6 5 8 10 11 10 10 9 8 8 13 14 17 14 9 8 10 10 12 12 10 10 11 9 7 7 7 6 4 3 3 3 4 5 6 6
13 13 12 9 10 8 7 7 6 7 7 9 9 10 10 9 8 8 9 11 11 10 10 10 10 9 8 6 6 6 6 6 6 6 5 4 3 4 4 3 3 4 5
12 12 10 7 9 9 9 7 6 5 5 7 9 12 14 13 12 15 15 12 11 13 12 7 6 5 5 5 4 5 6 6 6 4 6 5 5 5 4 2 3 3 4
12 10 9 7 6 8 8 6 8 10 11 6 7 15 16 16 19 20 20 20 20 19 10 8 7 7 7 7 6 5 4 5 5 6 6 6 6 5 4 2 2 3 3
12 11 10 7 7 8 7 5 4 6 8 12 19 21 17 17 23 22 20 21 21 17 9 10 10 9 8 8 7 6 5 5 5 6 6 6 5 4 3 3 2 2 2
12 13 10 7 7 7 6 6 5 7 3 5 10 14 18 20 22 21 21 16 12 10 11 12 11 10 9 9 8 7 7 7 5 6 6 5 4 3 2 2 2 2 2
14 10 9 6 7 7 6 6 6 7 6 5 6 5 8 9 16 23 21 14 15 14 12 11 11 11 10 9 9 9 9 9 8 6 6 6 5 4 3 2 2 3 2
11 11 8 5 6 6 6 6 6 5 7 6 10 10 11 10 9 11 12 12 14 13 12 11 11 11 10 9 10 10 9 9 9 7 6 6 5 4 4 4 3 3 2
5 6 7 6 6 7 6 6 6 8 10 11 11 13 19 17 15 16 14 13 13 13 12 11 11 11 10 9 10 11 11 10 10 9 8 7 7 6 5 5 4 4 4
7 7 7 7 7 7 7 7 7 10 8 9 9 12 20 15 14 15 15 14 12 12 12 12 11 11 11 11 11 12 12 12 11 10 9 8 7 7 7 6 5 5 5
5 5 6 5 7 8 8 6 9 8 7 9 10 13 13 12 12 13 13 13 12 11 11 11 11 11 10 10 11 12 13 13 12 11 11 10 9 9 8 8 8 7 7
4 5 6 6 7 8 8 8 10 6 9 11 11 13 14 13 13 13 13 11 11 11 10 10 10 11 12 11 10 12 13 14 14 13 13 11 11 10 9 9 9 10 10
5 7 7 7 8 8 8 9 8 8 10 11 11 12 13 12 11 11 11 11 10 11 11 10 9 11 13 14 13 15 16 16 16 15 13 11 12 12 12 12 11 11 11
6 7 6 6 7 8 7 8 7 10 10 10 10 11 12 12 11 11 11 11 10 10 10 10 11 13 13 13 15 17 17 18 18 18 15 11 11 11 12 12 14 13 12
Wind_Direction
263 231 221 215 220 234 249 263 271 286 300 314 323 326 332 338 350 354 353 324 295 324 329 306 28 350 227 188 157 139 130 115 120 85 42 67 82 98 97 79 69 65 54
283 257 243 228 221 231 247 262 271 282 303 312 318 334 341 348 3 18 37 40 22 32 35 47 55 46 32 57 90 102 116 112 128 127 100 79 82 92 96 88 77 64 55
313 280 255 242 233 232 237 256 269 281 299 311 316 347 342 359 30 40 49 49 51 50 41 46 42 73 29 40 79 105 109 98 101 111 100 72 83 90 95 81 63 54 56
324 300 270 251 238 234 232 242 256 264 284 304 315 343 341 4 49 59 59 52 60 65 33 46 57 80 90 132 144 123 115 108 108 107 102 90 82 73 86 93 93 68 53
331 322 298 279 255 236 228 225 236 238 249 259 259 356 356 9 56 72 76 72 75 73 11 52 83 92 95 117 125 117 114 111 110 106 103 97 84 78 81 80 96 92 68
328 323 317 304 278 253 232 215 217 218 221 220 200 177 118 143 151 144 154 131 119 108 97 68 79 83 76 71 73 76 87 112 110 104 102 100 92 86 87 81 85 100 71
306 305 313 319 317 292 256 222 216 207 203 210 197 181 180 202 199 187 158 63 64 107 127 108 89 70 85 85 74 68 64 72 101 120 118 121 130 137 126 120 105 80 73
297 297 310 322 325 320 266 242 232 215 205 206 197 192 186 209 211 184 107 92 84 71 71 99 117 104 81 101 92 75 65 65 75 95 104 113 115 135 122 104 103 109 90
292 293 303 317 319 322 289 252 238 213 213 205 194 190 189 203 202 171 131 121 99 75 69 79 105 110 83 103 103 94 84 73 71 73 73 72 70 63 70 121 105 113 77
281 290 292 290 291 298 296 266 224 213 215 212 194 191 189 192 183 165 142 139 119 108 90 77 90 105 98 108 117 115 104 85 90 82 65 53 52 51 48 54 78 94 81
265 281 279 271 265 265 267 261 236 221 222 218 201 186 184 180 173 163 154 147 140 136 126 115 105 102 100 97 99 106 114 112 95 89 80 71 62 57 52 53 61 78 82
270 280 277 266 260 257 256 271 261 231 222 214 206 182 186 175 176 173 160 145 146 142 143 131 114 99 97 98 100 104 104 99 95 92 88 76 71 69 64 67 68 71 69
270 275 280 279 273 259 246 244 265 251 221 205 196 185 184 176 179 178 166 146 140 141 140 130 119 102 94 86 90 100 104 101 97 96 96 89 76 65 72 70 62 65 71
260 265 273 273 274 272 261 240 227 241 214 206 191 189 181 178 177 172 163 143 135 137 130 121 108 93 92 99 91 86 91 101 108 108 112 108 87 75 73 69 63 48 46
255 259 261 260 269 272 267 256 234 206 216 197 198 199 183 185 185 170 164 162 157 148 137 131 127 123 128 125 113 109 107 110 111 118 121 109 97 96 83 69 77 70 67
262 263 257 252 257 261 263 268 238 216 222 216 257 242 198 182 166 167 166 155 144 142 141 152 155 159 163 158 148 136 126 125 127 132 131 125 118 117 106 80 82 95 92
242 252 249 240 242 250 252 250 271 246 230 254 253 223 190 176 165 164 160 151 151 151 158 167 172 174 176 171 166 160 155 147 146 148 142 138 133 125 119 116 125 132 115
250 241 231 231 233 234 238 238 244 275 276 242 202 180 178 174 157 147 139 137 155 173 176 176 180 181 181 179 177 171 161 158 160 159 150 148 150 145 142 141 147 142 124
238 223 219 222 231 230 239 242 225 233 243 217 133 128 132 138 142 145 151 162 175 184 184 182 182 184 187 188 186 179 173 172 172 170 165 164 169 166 158 157 142 126 122
218 203 198 212 233 234 238 242 240 253 275 222 172 163 146 139 150 159 176 176 180 184 184 185 184 184 186 189 185 180 177 178 179 183 179 178 180 183 172 166 168 162 156
211 205 201 215 223 225 227 235 243 251 249 194 177 167 165 166 168 173 181 183 183 183 181 186 189 187 187 187 183 183 186 188 190 193 191 188 185 186 182 173 177 181 174
220 214 216 212 218 222 222 218 238 264 221 175 175 169 168 169 169 176 183 186 186 186 184 185 191 190 188 187 185 188 193 195 195 198 197 196 197 191 181 181 187 189 190
200 215 220 207 220 224 220 232 266 249 182 175 163 161 173 172 174 180 183 186 185 185 181 182 188 189 189 190 189 188 191 197 197 197 197 198 202 201 190 191 195 194 203
232 231 229 224 228 223 217 238 262 208 167 163 160 164 175 177 177 180 181 181 184 182 175 175 186 188 187 193 196 198 199 196 194 198 197 201 205 203 199 201 205 208 211
238 239 236 229 220 214 218 248 248 183 167 161 158 162 170 173 169 170 173 174 175 175 174 175 181 186 189 196 202 203 197 189 192 195 199 207 212 208 206 207 209 213 214
239 237 233 223 208 201 221 249 216 170 163 157 155 159 163 166 165 166 168 171 174 174 174 178 183 190 195 202 207 205 196 193 195 195 200 208 214 214 211 212 212 214 215
Height
1488 1484 1481 1480 1478 1476 1474 1471 1468 1464 1461 1458 1455 1451 1448 1443 1438 1434 1432 1430 1429 1428 1427 1425 1424 1424 1424 1426 1430 1436 1441 1444 1448 1453 1457 1461 1462 1465 1467 1467 1465 1464 1463
1483 1481 1478 1476 1474 1473 1471 1468 1465 1462 1460 1457 1453 1450 1447 1443 1438 1434 1432 1429 1429 1428 1426 1426 1425 1424 1424 1426 1430 1435 1440 1444 1447 1451 1457 1460 1463 1466 1467 1467 1466 1463 1462
1476 1474 1472 1471 1470 1468 1466 1464 1462 1459 1457 1455 1451 1447 1447 1443 1438 1435 1434 1431 1431 1430 1428 1429 1428 1429 1428 1431 1435 1438 1441 1444 1448 1452 1456 1459 1462 1465 1467 1467 1465 1465 1464
1468 1467 1465 1463 1464 1463 1462 1460 1458 1456 1454 1453 1449 1446 1446 1445 1441 1438 1437 1435 1434 1434 1433 1432 1431 1431 1432 1435 1438 1441 1443 1446 1449 1453 1456 1459 1462 1463 1465 1466 1468 1468 1466
1461 1458 1456 1455 1454 1455 1456 1455 1454 1452 1450 1450 1447 1445 1446 1445 1442 1439 1439 1437 1435 1436 1438 1436 1435 1435 1436 1439 1442 1442 1444 1449 1451 1453 1456 1460 1462 1463 1465 1467 1468 1468 1468
1456 1454 1450 1446 1445 1445 1446 1448 1448 1447 1447 1446 1445 1444 1445 1444 1443 1440 1441 1441 1438 1439 1442 1441 1440 1441 1442 1444 1445 1446 1448 1450 1453 1455 1457 1460 1463 1464 1465 1467 1469 1470 1470
1453 1449 1445 1441 1438 1437 1438 1439 1441 1442 1442 1442 1442 1442 1442 1443 1443 1441 1441 1443 1443 1444 1444 1445 1446 1446 1447 1448 1449 1450 1451 1453 1456 1458 1459 1461 1463 1464 1466 1467 1468 1469 1469
1449 1444 1439 1435 1432 1430 1430 1431 1434 1436 1436 1437 1438 1439 1440 1442 1443 1442 1442 1444 1445 1446 1446 1447 1448 1449 1450 1451 1451 1452 1453 1455 1457 1459 1461 1462 1464 1464 1465 1466 1466 1467 1468
1443 1438 1434 1430 1427 1424 1423 1424 1425 1427 1429 1431 1433 1435 1436 1438 1440 1441 1441 1445 1446 1447 1447 1448 1449 1450 1450 1451 1451 1453 1455 1456 1457 1459 1460 1461 1463 1463 1464 1464 1465 1467 1468
1436 1433 1430 1427 1424 1420 1418 1418 1418 1419 1421 1424 1425 1429 1431 1434 1437 1439 1440 1444 1445 1446 1447 1448 1449 1450 1451 1452 1453 1454 1455 1455 1457 1460 1461 1461 1462 1462 1463 1463 1465 1467 1468
1429 1427 1425 1423 1420 1416 1413 1412 1411 1412 1414 1417 1419 1422 1425 1429 1433 1436 1439 1441 1444 1446 1447 1448 1450 1451 1452 1452 1452 1454 1455 1457 1458 1460 1461 1463 1463 1463 1464 1465 1466 1468 1468
1420 1418 1417 1415 1412 1410 1407 1405 1405 1404 1406 1409 1414 1416 1419 1424 1429 1433 1437 1440 1443 1445 1447 1448 1449 1451 1452 1452 1453 1454 1456 1458 1459 1460 1463 1464 1464 1466 1466 1467 1467 1468 1468
1409 1407 1406 1405 1403 1401 1399 1398 1396 1397 1396 1400 1405 1408 1413 1419 1425 1430 1434 1438 1441 1445 1447 1448 1450 1451 1452 1454 1455 1456 1457 1458 1459 1462 1464 1465 1467 1467 1467 1468 1468 1469 1469
1398 1397 1396 1395 1393 1391 1390 1389 1389 1391 1391 1393 1398 1401 1407 1413 1420 1424 1430 1435 1439 1443 1446 1448 1450 1452 1454 1456 1457 1457 1458 1459 1461 1463 1465 1467 1467 1467 1469 1469 1470 1469 1469
1388 1387 1386 1386 1385 1382 1381 1380 1379 1381 1384 1387 1392 1397 1401 1406 1413 1419 1425 1430 1436 1440 1444 1447 1450 1452 1455 1457 1458 1458 1459 1460 1463 1465 1466 1467 1468 1468 1469 1470 1470 1469 1469
1377 1377 1376 1377 1376 1375 1374 1373 1372 1373 1374 1378 1386 1392 1397 1403 1410 1416 1423 1428 1433 1437 1442 1445 1448 1451 1454 1456 1458 1459 1461 1462 1464 1465 1467 1468 1469 1469 1470 1470 1470 1470 1470
1363 1365 1365 1367 1368 1367 1366 1365 1365 1365 1365 1373 1376 1381 1390 1399 1406 1413 1419 1424 1430 1434 1438 1442 1445 1449 1452 1455 1458 1460 1461 1463 1464 1465 1467 1468 1469 1470 1470 1470 1471 1471 1471
1350 1353 1355 1358 1360 1360 1359 1359 1358 1357 1359 1363 1366 1374 1384 1395 1402 1408 1415 1421 1426 1431 1435 1439 1442 1447 1451 1454 1456 1459 1461 1463 1465 1466 1467 1469 1470 1471 1472 1471 1471 1471 1471
1337 1343 1345 1349 1351 1352 1352 1352 1353 1354 1358 1356 1360 1369 1378 1389 1398 1404 1410 1415 1421 1426 1431 1436 1440 1444 1449 1452 1455 1458 1460 1462 1464 1466 1468 1469 1470 1471 1471 1472 1471 1471 1471
1328 1333 1337 1339 1342 1344 1346 1346 1345 1346 1345 1350 1357 1364 1374 1383 1391 1398 1405 1411 1417 1422 1428 1433 1437 1441 1446 1449 1452 1456 1459 1461 1463 1465 1468 1469 1470 1471 1471 1472 1472 1471 1471
1321 1325 1329 1333 1336 1339 1340 1341 1341 1342 1345 1345 1353 1362 1371 1379 1387 1394 1400 1407 1413 1419 1424 1429 1434 1437 1442 1446 1450 1453 1456 1459 1461 1463 1466 1468 1469 1470 1471 1471 1471 1471 1470
1316 1318 1322 1328 1331 1332 1335 1339 1341 1342 1341 1344 1351 1360 1369 1377 1385 1391 1397 1403 1409 1416 1421 1426 1430 1434 1438 1442 1446 1450 1453 1455 1458 1461 1463 1465 1467 1468 1468 1470 1470 1469 1469
1310 1313 1316 1321 1325 1329 1331 1333 1336 1336 1338 1341 1348 1356 1365 1373 1381 1387 1393 1399 1405 1412 1417 1423 1427 1431 1435 1438 1442 1446 1449 1452 1455 1458 1460 1463 1464 1466 1466 1467 1467 1467 1467
1309 1311 1313 1318 1320 1324 1327 1330 1331 1334 1337 1341 1348 1354 1361 1369 1376 1383 1390 1395 1401 1408 1414 1420 1424 1428 1431 1434 1438 1442 1446 1449 1452 1455 1457 1460 1462 1463 1463 1464 1464 1464 1464
1309 1310 1312 1315 1317 1320 1324 1326 1328 1333 1337 1342 1347 1353 1360 1367 1373 1380 1386 1392 1399 1405 1411 1416 1420 1424 1427 1431 1435 1438 1441 1444 1448 1450 1453 1455 1457 1458 1459 1459 1460 1460 1460
1308 1309 1310 1312 1314 1318 1321 1322 1326 1331 1337 1342 1347 1354 1361 1366 1372 1378 1384 1390 1396 1402 1407 1412 1417 1420 1423 1427 1431 1434 1437 1440 1443 1446 1448 1450 1452 1453 1454 1454 1455 1455 1455